Location: Winthrop
(48.4780°N, 120.1850°W)
Time: 10:22:31
(UTC-08:00)

Explorer 11/Cluster Stage 4 - All Passes

Search period start: 30 January 2023 00:00
Search period end: 09 February 2023 00:00
Orbit: 466 x 1244 km, 28.8° (Epoch: 29 January)

Date Brightness Start Highest point End Pass type
(mag) Time Alt. Az. Time Alt. Az. Time Alt. Az.
30 Jan - 06:16:44 10° S 06:18:47 11° SSE 06:20:47 10° SSE visible
30 Jan - 08:02:07 10° SSW 08:06:19 15° S 08:10:16 10° SE daylight
30 Jan - 09:50:57 10° SW 09:53:45 12° SSW 09:56:24 10° S daylight
31 Jan - 06:02:18 10° S 06:05:13 12° SSE 06:08:05 10° SE visible
31 Jan - 07:48:18 10° SW 07:52:47 16° S 07:57:03 10° SE daylight
31 Jan - 09:37:19 10° SW 09:40:14 13° SSW 09:43:01 10° S daylight
01 Feb - 05:48:11 10° S 05:51:38 13° SSE 05:55:04 10° SE visible
01 Feb - 07:34:32 10° SW 07:39:14 17° S 07:43:43 10° SE daylight
01 Feb - 09:23:44 10° SW 09:26:42 13° SSW 09:29:32 10° S daylight
02 Feb - 05:34:13 10° SSW 05:38:03 14° SSE 05:41:52 10° SE visible
02 Feb - 07:20:50 10° SW 07:25:39 17° S 07:30:19 10° SE daylight
02 Feb - 09:10:14 10° SW 09:13:08 12° SSW 09:15:56 10° S daylight
03 Feb - 05:20:22 10° SSW 05:24:26 15° SSE 05:28:32 10° SE visible
03 Feb - 07:07:10 10° SW 07:12:03 17° S 07:16:49 10° SE daylight
03 Feb - 08:56:48 10° SW 08:59:33 12° SSW 09:02:13 10° S daylight
04 Feb - 05:06:36 10° SSW 05:10:49 15° SSE 05:15:06 10° SE visible
04 Feb - 06:53:34 10° SW 06:58:26 17° S 07:03:15 10° SSE visible
04 Feb - 08:43:31 10° SW 08:45:56 12° SSW 08:48:19 10° S daylight
05 Feb - 04:52:56 10° SSW 04:57:12 16° S 05:01:35 10° SE visible
05 Feb - 06:40:02 10° SW 06:44:49 17° S 06:49:36 10° SSE visible
05 Feb - 08:30:25 10° SW 08:32:19 11° SSW 08:34:11 10° S daylight
06 Feb - 04:39:20 10° SSW 04:43:34 16° S 04:47:59 10° SE visible
06 Feb - 06:26:34 10° SW 06:31:11 17° S 06:35:51 10° SSE visible
06 Feb - 08:18:00 10° SSW 08:18:40 10° SSW 08:19:20 10° SSW daylight
07 Feb - 04:25:48 10° SSW 04:29:57 16° S 04:34:18 10° SE visible
07 Feb - 06:13:09 10° SW 06:17:33 16° S 06:22:02 10° SSE visible
08 Feb - 04:12:20 10° SSW 04:16:20 16° S 04:20:34 10° SE visible
08 Feb - 05:59:50 10° SW 06:03:54 15° S 06:08:06 10° SSE visible
